Muscle Shoals, AL

6:26 PM CST on November 11, 2019 (GMT -0600)
Northwest Alabama Regional

Weather History for KMSL - October, 2019

Change the Weather History Date:

Tuesday, October 22, 2019

  Actual Average Record
Temperature  
Mean Temperature 56 °F 60 °F  
Max Temperature 68 °F 72 °F 90 °F (1963)
Min Temperature 44 °F 48 °F 26 °F (1916)
Degree Days  
Heating Degree Days 9 6  
Month to date heating degree days 66 87  
Since 1 July heating degree days 66 102  
Cooling Degree Days 0 1  
Month to date cooling degree days 138 52  
Year to date cooling degree days 2496 1854  
Growing Degree Days 7 (Base 50)    
Moisture  
Dew Point 48 °F    
Average Humidity 65    
Maximum Humidity 93    
Minimum Humidity 37    
Precipitation  
Precipitation 0.00 in 0.11 in 2.85 in (2007)
Month to date precipitation 2.21 2.34  
Year to date precipitation 48.73 41.77  
Snow  
Snow 0.00 in - - ()
Month to date snowfall 0.0  
Since 1 July snowfall 0.0  
Since 1 September snowfall 0.0  
Snow Depth 0.00 in    
Sea Level Pressure  
Sea Level Pressure 30.00 in    
Wind  
Wind Speed 8 mph (West)    
Max Wind Speed 20 mph    
Max Gust Speed 28 mph    
Visibility 10 miles    
Events      
T = Trace of Precipitation, MM = Missing Value Source: NWS Daily Summary

Daily Weather History Graph

Daily Weather History Graph

Search for Another Location

Airport or City:

Astronomy

Oct. 22, 2019 Rise Set
Actual Time 7:01 AM CDT 6:07 PM CDT
Civil Twilight 6:36 AM CDT 6:33 PM CDT
Nautical Twilight 6:06 AM CDT 7:02 PM CDT
Astronomical Twilight 5:37 AM CDT 7:31 PM CDT
Moon 12:31 AM CDT (10/22) 2:57 PM CDT (10/22)
Length of Visible Light 11h 56m
Length of Day
11h 05m
Last Quarter, 37% of the Moon is Illuminated
Oct 22
Last Quarter
Oct 27
New
Nov 4
First Quarter
Nov 12
Full
Nov 19
Last Quarter

Hourly Weather History & Observations

Time (CDT) Temp. Dew Point Humidity Pressure Visibility Wind Dir Wind Speed Gust Speed Precip Events Conditions
12:24 AM 63.0 °F 61.0 °F 93% 29.91 in 10.0 mi West 5.8 mph - N/A   Overcast
12:36 AM 63.0 °F 61.0 °F 93% 29.91 in 10.0 mi West 4.6 mph - N/A   Overcast
12:53 AM 63.0 °F 60.1 °F 90% 29.91 in 10.0 mi West 10.4 mph - N/A   Overcast
1:04 AM 63.0 °F 60.1 °F 90% 29.92 in 10.0 mi West 15.0 mph 18.4 mph N/A   Overcast
1:13 AM 63.0 °F 60.1 °F 90% 29.93 in 10.0 mi WNW 12.7 mph - N/A   Overcast
1:53 AM 63.0 °F 57.0 °F 81% 29.92 in 10.0 mi WNW 11.5 mph 20.7 mph N/A   Overcast
2:53 AM 60.1 °F 55.9 °F 86% 29.92 in 10.0 mi WNW 9.2 mph - N/A   Mostly Cloudy
3:53 AM 57.0 °F 54.0 °F 89% 29.94 in 10.0 mi West 6.9 mph - N/A   Clear
4:53 AM 54.0 °F 52.0 °F 93% 29.96 in 10.0 mi WSW 5.8 mph - N/A   Clear
5:53 AM 52.0 °F 50.0 °F 93% 29.97 in 10.0 mi WSW 4.6 mph - N/A   Clear
6:53 AM 52.0 °F 48.9 °F 89% 29.98 in 10.0 mi West 3.5 mph - N/A   Clear
7:53 AM 54.0 °F 50.0 °F 86% 30.00 in 10.0 mi Calm Calm - N/A   Clear
8:53 AM 57.9 °F 48.0 °F 70% 30.01 in 10.0 mi West 9.2 mph - N/A   Clear
9:53 AM 61.0 °F 45.0 °F 56% 30.03 in 10.0 mi West 13.8 mph - N/A   Clear
10:53 AM 64.0 °F 42.1 °F 45% 30.04 in 10.0 mi West 12.7 mph - N/A   Clear
11:53 AM 64.9 °F 41.0 °F 42% 30.04 in 10.0 mi West 11.5 mph - N/A   Clear
12:53 PM 66.0 °F 42.1 °F 42% 30.03 in 10.0 mi WNW 15.0 mph 23.0 mph N/A   Clear
1:53 PM 68.0 °F 43.0 °F 40% 30.01 in 10.0 mi West 15.0 mph 27.6 mph N/A   Clear
2:53 PM 68.0 °F 41.0 °F 37% 30.01 in 10.0 mi West 18.4 mph 23.0 mph N/A   Clear
3:53 PM 68.0 °F 41.0 °F 37% 30.01 in 10.0 mi WNW 13.8 mph 21.9 mph N/A   Partly Cloudy
4:53 PM 66.0 °F 41.0 °F 40% 30.01 in 10.0 mi West 16.1 mph 21.9 mph N/A   Partly Cloudy
5:53 PM 63.0 °F 39.0 °F 41% 30.03 in 10.0 mi West 13.8 mph - N/A   Partly Cloudy
6:53 PM 59.0 °F 39.0 °F 48% 30.06 in 10.0 mi WNW 9.2 mph - N/A   Clear
7:53 PM 55.9 °F 39.0 °F 53% 30.09 in 10.0 mi West 8.1 mph - N/A   Clear
8:53 PM 54.0 °F 37.9 °F 55% 30.11 in 10.0 mi Calm Calm - N/A   Clear
9:53 PM 50.0 °F 39.0 °F 66% 30.12 in 10.0 mi Calm Calm - N/A   Clear
10:53 PM 46.9 °F 41.0 °F 80% 30.12 in 10.0 mi Calm Calm - N/A   Clear
11:53 PM 45.0 °F 42.1 °F 90% 30.12 in 10.0 mi Calm Calm - N/A   Clear